User: anonymous
Location: Caltech
(34.1382°N, 118.1253°W)
Time: 10:53:18
(UTC-07:00)
Language:

Cosmos 676 Rocket - Orbit

View from above orbital plane
View from above orbital plane
View from above satellite
View from above satellite

Ground track
Ground track

The orbit data is extracted from the following two-line orbital elements,

1 07434U 74071B   14272.36302133  .00000298  00000-0  11065-3 0  3274
2 07434 074.0478 235.0999 0020428 027.1169 134.3592 14.36286195 94295
Epoch (UTC): 29 September 2014 08:42:45
Eccentricity: 0.0020428
inclination: 74.0478°
perigee height: 756 km
apogee height: 785 km
right ascension of ascending node: 235.0999°
argument of perigee: 27.1169°
revolutions per day: 14.36286195
mean anomaly at epoch: 134.3592°
orbit number at epoch: 9429

The dashed part of the orbit path shows where the satellite is in the earth's shadow,  

DLR